Overview Statistics Trail Chart Weather Telemetry Raw packets
 

This is the latest recevied weather packets stored in our database for station/object SP6KBU-12. If no packets are shown the sender has not sent any weather packets the latest 10 day(s).

<< 1 2 3 4 5 >>
Time Temp. Humidity Pressure Rain* Wind** Luminosity Snow
1788598269 19.44° C 50% 1019.8 hPa - - - -
1788597369 19.44° C 54% 1019.7 hPa - - - -
1788596469 18.89° C 53% 1019.5 hPa - - - -
1788595568 18.33° C 57% 1019.4 hPa - - - -
1788594667 17.78° C 61% 1019.2 hPa - - - -
1788593767 17.22° C 62% 1019.3 hPa - - - -
1788592867 16.67° C 66% 1019.2 hPa - - - -
1788591967 15.56° C 67% 1019 hPa - - - -
1788591067 15.56° C 70% 1019.1 hPa - - - -
1788590166 15° C 69% 1018.7 hPa - - - -
1788589266 14.44° C 73% 1018.7 hPa - - - -
1788588366 14.44° C 75% 1018.6 hPa - - - -
1788587466 13.89° C 76% 1018.5 hPa - - - -
1788586566 13.89° C 78% 1018.2 hPa - - - -
1788585666 13.33° C 79% 1018.1 hPa - - - -
1788584765 13.33° C 79% 1018.1 hPa - - - -
1788583865 13.33° C 80% 1018.1 hPa - - - -
1788582965 13.33° C 80% 1017.9 hPa - - - -
1788582065 13.33° C 81% 1017.7 hPa - - - -
1788581165 13.33° C 81% 1017.5 hPa - - - -
1788580264 12.78° C 81% 1017.3 hPa - - - -
1788579364 12.78° C 80% 1017.3 hPa - - - -
1788578464 12.78° C 81% 1017.2 hPa - - - -
1788577564 12.78° C 82% 1017.1 hPa - - - -
1788577564 12.78° C 82% 1017.1 hPa - - - -

* Rain since midnight (hover to see other rain measurements)
** Current wind speed in m/s (hover to see current wind gust speed)